[Date Prev][Date Next][Thread Prev][Thread Next] - [Date Index][Thread Index][Author Index]

2 Line ISS Keps 12-19



ISS
1 25544U 98067A   03353.17476852  .00011034  00000-0  11242-3 0  9110
2 25544  51.6275 166.5344 0005933 265.2815 268.3060 15.65676752289921


----
Via the sarex mailing list at AMSAT.ORG courtesy of AMSAT-NA.
To unsubscribe, send "unsubscribe sarex" to Majordomo@amsat.org



AMSAT Top AMSAT Home